GW3919 Weather Reports


Display with metric or nautical units.
time (UTC)temp
F
wind
direction
speed
MPH
gust
MPH
rain 1hr
in
rain 24hr
in
rain mn
in
humidity
%
barometer
mb
20260509101002 70 218 0.0 4.0 0.00 0.00 0.00 97 1008.9
20260509100459 70 136 3.0 4.0 0.00 0.00 0.00 97 1008.8
20260509095956 70 133 0.0 2.0 0.00 0.00 0.00 97 1008.5
20260509095453 70 130 2.0 4.0 0.00 0.00 0.00 97 1008.5
20260509094950 70 167 1.0 3.0 0.00 0.00 0.00 97 1008.3
20260509094447 70 304 1.0 2.0 0.00 0.00 0.00 97 1008.2
20260509093944 70 317 1.0 2.0 0.00 0.00 0.00 97 1008.4
20260509093442 70 138 2.0 4.0 0.00 0.00 0.00 97 1008.3
20260509092939 69 171 1.0 2.0 0.00 0.00 0.00 97 1007.4
20260509092437 69 315 0.0 3.0 0.00 0.00 0.00 97 1007.4
20260509091936 69 74 2.0 3.0 0.00 0.00 0.00 97 1007.1
20260509091432 69 252 0.0 3.0 0.00 0.00 0.00 97 1006.7
20260509090929 69 345 2.0 4.0 0.00 0.00 0.00 97 1006.9
20260509090426 69 27 2.0 4.0 0.00 0.00 0.00 97 1006.9
20260509085924 69 342 2.0 2.0 0.00 0.00 0.00 97 1006.8
20260509085421 69 334 3.0 4.0 0.00 0.00 0.00 97 1006.9
20260509084917 69 334 2.0 3.0 0.00 0.00 0.00 97 1007.4
20260509084414 69 340 2.0 4.0 0.00 0.00 0.00 97 1007.6
20260509083912 69 272 3.0 4.0 0.00 0.00 0.00 96 1007.8
20260509083409 70 282 2.0 4.0 0.00 0.00 0.00 96 1008.1
20260509082905 70 279 1.0 3.0 0.00 0.00 0.00 96 1008.5
20260509082402 70 336 2.0 4.0 0.00 0.00 0.00 96 1008.7
20260509081859 70 306 1.0 2.0 0.00 0.00 0.00 96 1009.3
20260509081356 70 324 0.0 3.0 0.00 0.00 0.00 95 1009.3
20260509080854 70 298 2.0 2.0 0.00 0.00 0.00 95 1009.4
20260509080352 70 316 2.0 2.0 0.00 0.00 0.00 95 1009.7
20260509075850 70 321 1.0 2.0 0.00 0.00 0.00 95 1009.7
20260509075346 70 337 0.0 2.0 0.00 0.00 0.00 95 1009.8
20260509074844 70 291 1.0 2.0 0.00 0.00 0.00 95 1010.1
20260509074341 70 282 2.0 3.0 0.00 0.00 0.00 95 1010.0
20260509073837 70 142 0.0 1.0 0.00 0.00 0.00 95 1010.2
20260509073334 70 235 0.0 0.0 0.00 0.00 0.00 95 1010.3
20260509072831 70 274 1.0 1.0 0.00 0.00 0.00 95 1010.4
20260509072327 69 323 0.0 3.0 0.00 0.00 0.00 95 1010.6
20260509071824 69 312 0.0 2.0 0.00 0.00 0.00 95 1010.8
20260509071321 69 46 1.0 2.0 0.00 0.00 0.00 95 1010.9
20260509070818 69 77 0.0 2.0 0.00 0.00 0.00 95 1010.8
20260509070315 69 95 1.0 1.0 0.00 0.00 0.00 95 1010.5
20260509065811 69 156 1.0 2.0 0.00 0.00 0.00 95 1010.2
20260509065307 69 97 2.0 2.0 0.00 0.00 0.00 95 1010.0
20260509064803 69 95 0.0 1.0 0.00 0.00 0.00 95 1009.7
20260509064301 69 129 0.0 0.0 0.00 0.00 0.00 94 1010.1
20260509063759 69 224 0.0 0.0 0.00 0.00 0.00 94 1010.2
20260509063254 69 32 0.0 2.0 0.00 0.00 0.00 94 1010.2
20260509062752 70 349 0.0 2.0 0.00 0.00 0.00 94 1010.4
20260509062249 70 37 0.0 0.0 0.00 0.00 0.00 93 1010.4
20260509061746 70 303 1.0 2.0 0.00 0.00 0.00 93 1010.5
20260509061244 70 89 0.0 0.0 0.00 0.00 0.00 93 1010.7
20260509060741 70 297 0.0 0.0 0.00 0.00 0.00 92 1010.7
20260509060237 71 129 0.0 0.0 0.00 0.00 0.00 92 1011.0
20260509055733 71 86 1.0 2.0 0.00 0.00 0.00 91 1011.1
20260509055229 71 1 0.0 2.0 0.00 0.00 0.00 91 1010.8
20260509054726 71 299 1.0 2.0 0.00 0.00 0.00 91 1010.9
20260509054223 71 89 0.0 1.0 0.00 0.00 0.00 91 1011.1
20260509053721 71 127 0.0 2.0 0.00 0.00 0.00 91 1011.6
20260509053218 71 152 0.0 2.0 0.00 0.00 0.00 90 1011.4
20260509052716 71 157 0.0 2.0 0.00 0.00 0.00 90 1011.1
20260509052213 71 180 0.0 1.0 0.00 0.00 0.00 90 1010.9
20260509051711 72 241 1.0 1.0 0.00 0.00 0.00 89 1010.5
20260509051208 72 210 1.0 2.0 0.00 0.00 0.00 89 1010.2
20260509050705 72 168 1.0 2.0 0.00 0.00 0.00 88 1010.1
20260509050201 72 284 1.0 2.0 0.00 0.00 0.00 88 1010.1
20260509045659 72 319 2.0 2.0 0.00 0.00 0.00 88 1010.0
20260509045155 73 285 2.0 2.0 0.00 0.00 0.00 87 1010.3
20260509044653 73 136 0.0 2.0 0.00 0.00 0.00 87 1010.0
20260509044150 73 331 1.0 2.0 0.00 0.00 0.00 87 1009.8
20260509043647 73 272 1.0 2.0 0.00 0.00 0.00 87 1009.7
20260509043142 73 306 0.0 2.0 0.00 0.00 0.00 87 1010.0
20260509042639 73 304 0.0 2.0 0.00 0.00 0.00 87 1010.1
20260509042135 73 0 1.0 2.0 0.00 0.00 0.00 87 1010.4
20260509041632 73 354 0.0 2.0 0.00 0.00 0.00 87 1010.5
20260509041129 73 279 1.0 1.0 0.00 0.00 0.00 86 1010.8
20260509040628 73 127 0.0 0.0 0.00 0.00 0.00 86 1010.9
20260509040124 73 309 0.0 0.0 0.00 0.00 0.00 86 1010.8
20260509035621 73 129 0.0 0.0 0.00 0.00 0.00 86 1010.9
20260509035118 73 251 0.0 1.0 0.00 0.00 0.00 86 1010.8
20260509034616 73 287 0.0 2.0 0.00 0.00 0.00 86 1010.6
20260509034112 73 327 1.0 2.0 0.00 0.00 0.00 86 1010.3
20260509033609 73 324 1.0 2.0 0.00 0.00 0.00 85 1009.8
20260509033106 73 304 0.0 2.0 0.00 0.00 0.00 85 1009.8
20260509032604 73 235 0.0 0.0 0.00 0.00 0.00 85 1010.2
20260509032100 73 256 0.0 1.0 0.00 0.00 0.00 85 1010.1
20260509031558 73 306 1.0 2.0 0.00 0.00 0.00 85 1010.0
20260509031055 73 329 0.0 2.0 0.00 0.00 0.00 85 1009.8
20260509030554 73 161 0.0 1.0 0.00 0.00 0.00 84 1009.8
20260509030050 72 40 1.0 2.0 0.00 0.00 0.00 84 1009.8
20260509025546 72 304 0.0 3.0 0.00 0.00 0.00 84 1009.6
20260509025042 72 293 1.0 2.0 0.00 0.00 0.00 84 1009.6
20260509024538 72 225 1.0 2.0 0.00 0.00 0.00 84 1009.5
20260509024034 72 269 1.0 2.0 0.00 0.00 0.00 84 1009.4
20260509023532 72 337 2.0 2.0 0.00 0.00 0.00 84 1009.2
20260509023028 72 89 0.0 2.0 0.00 0.00 0.00 84 1009.3
20260509022525 72 305 2.0 3.0 0.00 0.00 0.00 84 1009.0
20260509022023 73 327 2.0 2.0 0.00 0.00 0.00 84 1008.9
20260509021520 73 277 1.0 2.0 0.00 0.00 0.00 84 1009.0
20260509021017 73 304 0.0 2.0 0.00 0.00 0.00 83 1009.1
20260509020515 73 301 1.0 2.0 0.00 0.00 0.00 83 1009.1
20260509020012 73 272 2.0 2.0 0.00 0.00 0.00 82 1008.9
20260509015511 73 348 1.0 2.0 0.00 0.00 0.00 82 1009.2
20260509015008 73 298 1.0 1.0 0.00 0.00 0.00 82 1009.3
20260509014504 73 349 0.0 2.0 0.00 0.00 0.00 82 1009.2
20260509014000 73 347 2.0 2.0 0.00 0.00 0.00 82 1009.0
20260509013457 73 260 2.0 2.0 0.00 0.00 0.00 82 1009.1
20260509012953 73 258 2.0 2.0 0.00 0.00 0.00 82 1009.0
20260509012449 73 309 0.0 3.0 0.00 0.00 0.00 82 1009.0
20260509011946 73 298 0.0 2.0 0.00 0.00 0.00 82 1008.7
20260509011444 73 334 0.0 1.0 0.00 0.00 0.00 81 1008.7
20260509010942 73 317 1.0 2.0 0.00 0.00 0.00 81 1008.6
20260509010439 73 242 0.0 1.0 0.00 0.00 0.00 81 1008.5
20260509005936 73 106 0.0 2.0 0.00 0.00 0.00 81 1008.4
20260509005434 73 257 1.0 2.0 0.00 0.00 0.00 81 1008.3
20260509004934 74 347 0.0 2.0 0.00 0.00 0.00 81 1008.4
20260509004431 74 293 0.0 2.0 0.00 0.00 0.00 80 1008.3
20260509003929 74 277 2.0 2.0 0.00 0.00 0.00 80 1008.2
20260509003426 74 253 0.0 3.0 0.00 0.00 0.00 80 1008.3
20260509002923 74 308 1.0 2.0 0.00 0.00 0.00 80 1008.3
20260509002421 74 138 1.0 2.0 0.00 0.00 0.00 80 1008.4
20260509001913 74 314 1.0 2.0 0.00 0.00 0.00 79 1008.3
20260509001409 74 242 0.0 2.0 0.00 0.00 0.00 79 1008.5
20260509000906 74 322 2.0 2.0 0.00 0.00 0.00 78 1008.4
20260509000404 75 191 0.0 2.0 0.00 0.00 0.00 78 1008.5
20260508235859 75 50 1.0 3.0 0.00 0.00 0.00 78 1008.5
20260508235357 75 251 1.0 3.0 0.00 0.00 0.00 78 1008.6
20260508234854 75 268 2.0 2.0 0.00 0.00 0.00 77 1008.7
20260508234350 75 283 1.0 2.0 0.00 0.00 0.00 77 1008.8
20260508233849 75 341 2.0 2.0 0.00 0.00 0.00 76 1008.8
20260508233348 75 348 2.0 2.0 0.00 0.00 0.00 76 1008.8
20260508232844 75 302 2.0 3.0 0.00 0.00 0.00 76 1008.8
20260508232340 76 325 0.0 4.0 0.00 0.00 0.00 74 1008.9
20260508231839 79 183 0.0 2.0 0.00 0.00 0.00 70 1008.7
20260508231335 78 86 1.0 3.0 0.00 0.00 0.00 71 1008.7
20260508230832 78 359 0.0 2.0 0.00 0.00 0.00 71 1008.8
20260508230328 78 333 2.0 3.0 0.00 0.00 0.00 71 1008.6
20260508225826 78 331 3.0 3.0 0.00 0.00 0.00 70 1008.8
20260508225322 77 349 2.0 3.0 0.00 0.00 0.00 72 1008.9
20260508224821 77 299 2.0 4.0 0.00 0.00 0.00 71 1008.8
20260508224318 77 256 1.0 4.0 0.00 0.00 0.00 71 1008.9
20260508223815 77 299 2.0 4.0 0.00 0.00 0.00 71 1009.1
20260508223312 78 323 1.0 2.0 0.00 0.00 0.00 69 1009.0
20260508222810 77 323 3.0 4.0 0.00 0.00 0.00 70 1008.9
20260508222307 78 313 2.0 3.0 0.00 0.00 0.00 69 1008.9
20260508221804 78 70 2.0 4.0 0.00 0.00 0.00 69 1008.9
20260508221259 77 267 1.0 3.0 0.00 0.00 0.00 70 1008.9
20260508220755 77 358 1.0 3.0 0.00 0.00 0.00 71 1008.9
20260508220252 76 289 1.0 3.0 0.00 0.00 0.00 71 1009.0
20260508215749 76 284 4.0 4.0 0.00 0.00 0.00 72 1009.0
20260508215245 77 348 1.0 5.0 0.00 0.00 0.00 71 1009.0
20260508214742 77 358 1.0 4.0 0.00 0.00 0.00 71 1008.8
20260508214234 78 351 2.0 3.0 0.00 0.00 0.00 69 1008.8
20260508213730 76 340 2.0 4.0 0.00 0.00 0.00 72 1008.7
20260508213227 75 328 1.0 5.0 0.00 0.00 0.00 73 1008.6
20260508212724 77 264 2.0 4.0 0.00 0.00 0.00 72 1008.6
20260508212220 75 305 1.0 4.0 0.00 0.00 0.00 74 1008.7
20260508211715 74 303 4.0 5.0 0.00 0.00 0.00 78 1009.0
20260508211212 72 318 2.0 3.0 0.00 0.00 0.00 81 1008.5
20260508210709 72 304 4.0 5.0 0.00 0.00 0.00 81 1009.3
20260508210206 73 296 0.0 4.0 0.00 0.00 0.00 79 1009.6
20260508205703 73 252 3.0 3.0 0.00 0.00 0.00 76 1009.7
20260508205159 73 259 1.0 2.0 0.00 0.00 0.00 76 1010.5
20260508204655 73 258 2.0 2.0 0.00 0.00 0.00 76 1010.6
20260508204152 73 357 1.0 2.0 0.00 0.00 0.00 76 1010.5
20260508203648 73 191 0.0 4.0 0.00 0.00 0.00 76 1010.8
20260508203144 73 84 1.0 4.0 0.00 0.00 0.00 77 1010.9
20260508202641 74 120 0.0 4.0 0.00 0.00 0.00 76 1011.0
20260508202138 75 293 0.0 2.0 0.00 0.00 0.00 75 1010.7
20260508201634 75 42 0.0 2.0 0.00 0.00 0.00 74 1011.0
20260508201131 75 100 0.0 3.0 0.00 0.00 0.00 74 1010.9
20260508200628 75 336 0.0 2.0 0.00 0.00 0.00 74 1010.6
20260508200124 75 61 0.0 5.0 0.00 0.00 0.00 72 1010.8
20260508195621 76 344 1.0 2.0 0.00 0.00 0.00 72 1010.9
20260508195117 76 287 0.0 2.0 0.00 0.00 0.00 72 1010.8
20260508194614 75 34 2.0 4.0 0.00 0.00 0.00 72 1010.9
20260508194111 76 280 2.0 3.0 0.00 0.00 0.00 71 1011.1
20260508193608 76 350 1.0 4.0 0.00 0.00 0.00 71 1011.1
20260508193104 77 295 1.0 3.0 0.00 0.00 0.00 69 1011.1
20260508192601 76 254 1.0 4.0 0.00 0.00 0.00 69 1011.2
20260508192058 76 339 1.0 3.0 0.00 0.00 0.00 70 1010.9
20260508191555 76 298 2.0 3.0 0.00 0.00 0.00 69 1011.1
20260508191052 77 331 1.0 5.0 0.00 0.00 0.00 70 1011.3
20260508190549 77 62 0.0 5.0 0.00 0.00 0.00 69 1011.3
20260508190045 77 308 1.0 3.0 0.00 0.00 0.00 69 1011.3
20260508185543 77 325 2.0 2.0 0.00 0.00 0.00 68 1011.3
20260508185040 78 88 2.0 3.0 0.00 0.00 0.00 67 1011.2
20260508184537 78 186 2.0 2.0 0.00 0.00 0.00 66 1011.4
20260508184034 78 303 2.0 4.0 0.00 0.00 0.00 67 1011.4
20260508183531 78 338 2.0 4.0 0.00 0.00 0.00 66 1011.4
20260508183027 79 330 1.0 4.0 0.00 0.00 0.00 65 1011.5
20260508182523 77 222 1.0 3.0 0.00 0.00 0.00 66 1011.3
20260508182020 78 279 2.0 3.0 0.00 0.00 0.00 65 1011.5
20260508181515 79 77 4.0 4.0 0.00 0.00 0.00 65 1011.7
20260508181013 78 276 3.0 4.0 0.00 0.00 0.00 65 1011.9
20260508180509 78 195 2.0 3.0 0.00 0.00 0.00 65 1011.8
20260508180006 78 327 2.0 4.0 0.00 0.00 0.00 65 1011.9
20260508175502 77 106 5.0 5.0 0.00 0.00 0.00 65 1011.9
20260508175000 78 275 2.0 4.0 0.00 0.00 0.00 64 1012.2
20260508174457 79 355 1.0 3.0 0.00 0.00 0.00 63 1012.2
20260508173954 79 93 2.0 2.0 0.00 0.00 0.00 64 1012.4
20260508173451 78 338 1.0 3.0 0.00 0.00 0.00 63 1012.3
20260508172947 78 212 0.0 4.0 0.00 0.00 0.00 64 1012.3
20260508172444 78 54 0.0 3.0 0.00 0.00 0.00 64 1012.5
20260508171940 77 266 0.0 3.0 0.00 0.00 0.00 64 1012.5
20260508171437 77 7 1.0 3.0 0.00 0.00 0.00 65 1012.5
20260508170934 78 276 1.0 4.0 0.00 0.00 0.00 65 1012.7
20260508170431 76 273 4.0 4.0 0.00 0.00 0.00 65 1012.8
20260508165928 77 45 1.0 3.0 0.00 0.00 0.00 64 1013.1
20260508165426 75 4 2.0 6.0 0.00 0.00 0.00 66 1013.2
20260508164921 75 47 1.0 3.0 0.00 0.00 0.00 66 1013.4
20260508164419 74 322 2.0 3.0 0.00 0.00 0.00 68 1013.6
20260508163916 75 181 1.0 3.0 0.00 0.00 0.00 66 1013.6
20260508163414 76 274 2.0 2.0 0.00 0.00 0.00 65 1013.8
20260508162909 76 293 2.0 3.0 0.00 0.00 0.00 64 1013.6
20260508162407 77 298 0.0 4.0 0.00 0.00 0.00 64 1013.5
20260508161903 76 296 2.0 4.0 0.00 0.00 0.00 66 1013.7
20260508161401 75 241 2.0 3.0 0.00 0.00 0.00 66 1013.9
20260508160857 75 328 2.0 3.0 0.00 0.00 0.00 66 1013.8
20260508160356 75 175 1.0 3.0 0.00 0.00 0.00 66 1013.7
20260508155852 74 11 1.0 5.0 0.00 0.00 0.00 67 1014.1
20260508155349 73 291 2.0 4.0 0.00 0.00 0.00 69 1013.9
20260508154846 73 258 3.0 4.0 0.00 0.00 0.00 67 1014.2
20260508154344 72 281 3.0 4.0 0.00 0.00 0.00 68 1014.5
20260508153840 73 272 0.0 3.0 0.00 0.00 0.00 67 1014.3
20260508153338 72 326 0.0 2.0 0.00 0.00 0.00 69 1014.3
20260508152833 71 323 2.0 2.0 0.00 0.00 0.00 70 1014.3
20260508152330 71 254 1.0 3.0 0.00 0.00 0.00 70 1014.7
20260508151826 71 71 1.0 2.0 0.00 0.00 0.00 70 1014.6
20260508151324 70 14 0.0 3.0 0.00 0.00 0.00 71 1014.6
20260508150820 70 330 1.0 2.0 0.00 0.00 0.00 70 1014.6
20260508150316 70 309 2.0 2.0 0.00 0.00 0.00 70 1014.4
20260508145807 70 310 2.0 2.0 0.00 0.00 0.00 70 1014.3
20260508145306 71 241 2.0 3.0 0.00 0.00 0.00 69 1014.2
20260508144800 71 322 2.0 3.0 0.00 0.00 0.00 67 1014.3
20260508144258 71 287 0.0 2.0 0.00 0.00 0.00 70 1014.4
20260508143755 70 43 0.0 2.0 0.00 0.00 0.00 70 1014.2
20260508143252 69 40 0.0 3.0 0.00 0.00 0.00 71 1014.4
20260508142748 69 327 1.0 3.0 0.00 0.00 0.00 73 1014.5
20260508142246 68 243 0.0 3.0 0.00 0.00 0.00 73 1014.5
20260508141742 68 308 2.0 4.0 0.00 0.00 0.00 73 1014.7
20260508141240 68 302 1.0 4.0 0.00 0.00 0.00 73 1014.7
20260508140737 69 259 2.0 4.0 0.00 0.00 0.00 71 1014.7
20260508140233 70 342 2.0 4.0 0.00 0.00 0.00 70 1014.8
20260508135730 69 33 2.0 3.0 0.00 0.00 0.00 71 1014.5
20260508135226 69 287 1.0 4.0 0.00 0.00 0.00 72 1014.6
20260508134721 68 317 1.0 5.0 0.00 0.00 0.00 73 1014.8
20260508134219 68 82 2.0 2.0 0.00 0.00 0.00 75 1014.5
20260508133716 67 326 0.0 3.0 0.00 0.00 0.00 75 1014.5
20260508133214 68 312 1.0 4.0 0.00 0.00 0.00 74 1014.6
20260508132711 68 310 3.0 3.0 0.00 0.00 0.00 75 1014.4
20260508132208 68 250 2.0 2.0 0.00 0.00 0.00 75 1014.5
20260508131703 67 267 1.0 3.0 0.00 0.00 0.00 76 1014.6
20260508131200 67 288 0.0 2.0 0.00 0.00 0.00 79 1014.6
20260508130656 66 287 1.0 2.0 0.00 0.00 0.00 80 1015.0
20260508130154 67 2 1.0 2.0 0.00 0.00 0.00 79 1015.0
20260508125649 67 321 0.0 2.0 0.00 0.00 0.00 81 1014.9
20260508125146 65 181 1.0 1.0 0.00 0.00 0.00 85 1014.9
20260508124644 63 99 0.0 1.0 0.00 0.00 0.00 91 1014.8
20260508124141 61 126 0.0 2.0 0.00 0.00 0.00 92 1015.0
20260508123640 60 164 0.0 2.0 0.00 0.00 0.00 93 1014.9
20260508123137 60 173 0.0 1.0 0.00 0.00 0.00 93 1014.7
20260508122633 60 150 0.0 1.0 0.00 0.00 0.00 93 1014.8
20260508122130 60 180 0.0 1.0 0.00 0.00 0.00 93 1014.5
20260508121628 60 290 0.0 1.0 0.00 0.00 0.00 93 1014.5
20260508121126 60 306 1.0 1.0 0.00 0.00 0.00 93 1014.6
20260508120623 60 178 0.0 1.0 0.00 0.00 0.00 93 1014.8
20260508120122 60 50 0.0 1.0 0.00 0.00 0.00 93 1014.9
20260508115619 60 175 0.0 1.0 0.00 0.00 0.00 93 1014.8
20260508115115 60 66 0.0 1.0 0.00 0.00 0.00 92 1014.9
20260508114613 60 143 0.0 2.0 0.00 0.00 0.00 92 1015.1
20260508114108 60 129 0.0 1.0 0.00 0.00 0.00 93 1015.0
20260508113606 60 235 0.0 1.0 0.00 0.00 0.00 93 1014.9
20260508113104 60 345 0.0 2.0 0.00 0.00 0.00 92 1014.9
20260508112559 60 269 1.0 2.0 0.00 0.00 0.00 92 1015.0
20260508112057 60 283 0.0 2.0 0.00 0.00 0.00 92 1015.2
20260508111553 60 19 0.0 2.0 0.00 0.00 0.00 91 1015.3
20260508111051 60 173 0.0 2.0 0.00 0.00 0.00 91 1015.2
20260508110549 60 236 0.0 2.0 0.00 0.00 0.00 91 1015.4
20260508110044 60 72 0.0 2.0 0.00 0.00 0.00 92 1015.5
20260508105539 60 125 1.0 2.0 0.00 0.00 0.00 92 1015.1
20260508105037 60 152 2.0 2.0 0.00 0.00 0.00 92 1015.0
20260508104535 60 217 0.0 2.0 0.00 0.00 0.00 92 1014.5
20260508104031 60 22 0.0 1.0 0.00 0.00 0.00 91 1014.6
20260508103528 60 135 1.0 2.0 0.00 0.00 0.00 91 1014.2
20260508103025 60 152 0.0 1.0 0.00 0.00 0.00 91 1013.9
20260508102523 60 66 1.0 2.0 0.00 0.00 0.00 90 1013.9
20260508102021 60 344 0.0 1.0 0.00 0.00 0.00 90 1013.6
20260508101518 60 286 1.0 2.0 0.00 0.00 0.00 90 1013.8